GW2092 Weather Reports


time (UTC)temp
C
wind
direction
speed
KPH
gust
KPH
rain 1hr
cm
rain 24hr
cm
rain mn
cm
humidity
%
barometer
mb
20260903093054 23 0 0.0 0.0 0.00 0.00 0.00 78 1016.4
20260903091556 23 0 0.0 0.0 0.00 0.00 0.00 78 1016.3
20260903090053 23 0 0.0 0.0 0.00 0.00 0.00 76 1016.3
20260903084548 24 0 0.0 0.0 0.00 0.00 0.00 75 1016.3
20260903083046 25 0 0.0 1.6 0.00 0.00 0.00 74 1016.2
20260903081555 25 0 0.0 0.0 0.00 0.00 0.00 73 1016.1
20260903080054 25 0 0.0 0.0 0.00 0.00 0.00 72 1015.9
20260903074547 25 0 0.0 1.6 0.00 0.00 0.00 72 1015.8
20260903073057 25 131 0.0 1.6 0.00 0.00 0.00 73 1015.8
20260903071553 25 0 0.0 0.0 0.00 0.00 0.00 72 1015.9
20260903070047 25 0 0.0 1.6 0.00 0.00 0.00 71 1015.9
20260903064545 26 0 0.0 1.6 0.00 0.00 0.00 70 1015.7
20260903063052 26 0 0.0 1.6 0.00 0.00 0.00 69 1015.7
20260903061550 26 0 0.0 0.0 0.00 0.00 0.00 68 1015.5
20260903060047 26 0 0.0 0.0 0.00 0.00 0.00 68 1015.6
20260903054553 27 162 0.0 3.2 0.00 0.00 0.00 67 1015.4
20260903053046 27 0 0.0 0.0 0.00 0.00 0.00 66 1015.4
20260903051551 27 0 0.0 1.6 0.00 0.00 0.00 66 1015.7
20260903050055 27 0 0.0 1.6 0.00 0.00 0.00 66 1015.6
20260903044550 27 0 0.0 1.6 0.00 0.00 0.00 65 1015.6
20260903043047 27 0 0.0 1.6 0.00 0.00 0.00 65 1015.6
20260903041554 27 145 0.0 1.6 0.00 0.00 0.00 64 1015.6
20260903040053 27 0 0.0 1.6 0.00 0.00 0.00 64 1015.6
20260903034548 27 0 0.0 1.6 0.00 0.00 0.00 62 1015.7
20260903033055 27 0 0.0 0.0 0.00 0.00 0.00 61 1015.7
20260903031557 28 0 0.0 0.0 0.00 0.00 0.00 59 1015.6
20260903030047 28 144 0.0 1.6 0.00 0.00 0.00 58 1015.5
20260903024548 28 0 0.0 0.0 0.00 0.00 0.00 57 1015.3
20260903023102 28 0 0.0 0.0 0.00 0.00 0.00 57 1015.0
20260903021549 28 0 0.0 0.0 0.00 0.00 0.00 57 1014.7
20260903020050 29 0 0.0 0.0 0.00 0.00 0.00 57 1014.5
20260903014549 29 0 0.0 0.0 0.00 0.00 0.00 55 1014.4
20260903013057 30 0 0.0 0.0 0.00 0.00 0.00 54 1014.1
20260903011544 30 0 0.0 0.0 0.00 0.00 0.00 53 1014.1
20260903010051 31 0 0.0 0.0 0.00 0.00 0.00 50 1014.0
20260903004546 32 0 0.0 0.0 0.00 0.00 0.00 46 1013.9
20260903003055 33 0 0.0 0.0 0.00 0.00 0.00 44 1013.9
20260903001549 34 0 0.0 0.0 0.00 0.00 0.00 43 1013.9
20260903000056 35 199 0.0 1.6 0.00 0.00 0.00 41 1013.9
20260902234555 35 0 0.0 4.8 0.00 0.00 0.00 40 1013.9
20260902233052 36 0 0.0 6.4 0.00 0.00 0.00 39 1013.9
20260902231558 36 173 0.0 6.4 0.00 0.00 0.00 37 1014.0
20260902230105 37 141 1.6 6.4 0.00 0.00 0.00 35 1014.1
20260902224552 38 194 1.6 8.0 0.00 0.00 0.00 34 1014.3
20260902223046 38 196 1.6 8.0 0.00 0.00 0.00 33 1014.3
20260902221553 40 94 0.0 3.2 0.00 0.00 0.00 33 1014.3
20260902220052 40 128 0.0 3.2 0.00 0.00 0.00 33 1014.3
20260902214548 39 0 0.0 3.2 0.00 0.00 0.00 34 1014.6
20260902213051 38 0 0.0 3.2 0.00 0.00 0.00 35 1014.8
20260902211551 38 183 0.0 6.4 0.00 0.00 0.00 34 1014.9
20260902210047 38 0 0.0 6.4 0.00 0.00 0.00 36 1015.0
20260902204556 39 150 1.6 12.9 0.00 0.00 0.00 35 1015.1
20260902203103 39 0 1.6 6.4 0.00 0.00 0.00 36 1015.4
20260902201549 39 169 1.6 11.3 0.00 0.00 0.00 35 1015.5
20260902200056 38 93 0.0 9.7 0.00 0.00 0.00 38 1015.7
20260902194554 37 139 0.0 8.0 0.00 0.00 0.00 39 1016.0
20260902193056 38 165 0.0 6.4 0.00 0.00 0.00 37 1016.2
20260902191605 38 147 1.6 11.3 0.00 0.00 0.00 38 1016.4
20260902190056 38 218 0.0 6.4 0.00 0.00 0.00 38 1016.5
20260902184547 38 0 0.0 6.4 0.00 0.00 0.00 39 1016.7
20260902183113 37 0 3.2 11.3 0.00 0.00 0.00 39 1017.0
20260902181555 38 216 0.0 6.4 0.00 0.00 0.00 39 1017.3
20260902180049 37 0 0.0 6.4 0.00 0.00 0.00 41 1017.5
20260902174556 37 113 1.6 9.7 0.00 0.00 0.00 41 1017.7
20260902173056 37 251 0.0 4.8 0.00 0.00 0.00 45 1017.8
20260902171558 36 0 1.6 11.3 0.00 0.00 0.00 44 1018.0
20260902170057 36 266 0.0 11.3 0.00 0.00 0.00 46 1018.3
20260902164559 35 148 1.6 9.7 0.00 0.00 0.00 48 1018.3
20260902163051 35 145 0.0 11.3 0.00 0.00 0.00 49 1018.5
20260902161547 34 150 1.6 17.7 0.00 0.00 0.00 50 1018.5
20260902160055 34 188 3.2 14.5 0.00 0.00 0.00 51 1018.7
20260902154606 33 0 0.0 9.7 0.00 0.00 0.00 54 1018.7
20260902153100 33 189 1.6 9.7 0.00 0.00 0.00 55 1018.8
20260902151546 33 205 1.6 6.4 0.00 0.00 0.00 55 1018.8
20260902150044 32 152 0.0 3.2 0.00 0.00 0.00 58 1019.1
20260902144550 31 254 0.0 4.8 0.00 0.00 0.00 59 1019.0
20260902143044 30 203 0.0 8.0 0.00 0.00 0.00 63 1019.1
20260902141554 29 213 0.0 4.8 0.00 0.00 0.00 64 1018.9
20260902140053 28 117 0.0 3.2 0.00 0.00 0.00 67 1019.1
20260902134550 27 0 0.0 1.6 0.00 0.00 0.00 70 1019.1
20260902133055 26 0 0.0 1.6 0.00 0.00 0.00 72 1018.9
20260902131553 26 215 0.0 1.6 0.00 0.00 0.00 72 1018.9
20260902130051 26 165 0.0 1.6 0.00 0.00 0.00 72 1018.8
20260902124544 26 0 0.0 1.6 0.00 0.00 0.00 73 1018.6
20260902123100 25 0 0.0 3.2 0.00 0.00 0.00 77 1018.6
20260902121550 23 0 0.0 1.6 0.00 0.00 0.00 80 1018.4
20260902120053 22 0 0.0 0.0 0.00 0.00 0.00 81 1018.3
20260902114616 23 0 0.0 0.0 0.00 0.00 0.00 80 1018.1
20260902113055 23 0 0.0 0.0 0.00 0.00 0.00 79 1018.0
20260902111600 23 0 0.0 0.0 0.00 0.00 0.00 80 1017.8
20260902110055 23 0 0.0 0.0 0.00 0.00 0.00 78 1017.8
20260902104552 23 0 0.0 0.0 0.00 0.00 0.00 77 1017.7
20260902103102 23 0 0.0 0.0 0.00 0.00 0.00 77 1017.6
20260902101544 24 0 0.0 0.0 0.00 0.00 0.00 76 1017.4
20260902100105 24 0 0.0 0.0 0.00 0.00 0.00 75 1017.5
20260902094601 25 0 0.0 0.0 0.00 0.00 0.00 73 1017.4